| time (UTC) | temp F | wind direction | speed MPH | gust MPH | rain 1hr in | rain 24hr in | rain mn in | humidity % | barometer mb |
| 20260509051541 | 73 | 107 | 1.0 | 7.0 | 0.00 | 0.00 | 0.00 | 92 | 1010.6 |
| 20260509051506 | 73 | 107 | 1.0 | 4.0 | 0.00 | 0.00 | 0.00 | 93 | 1013.2 |
| 20260509050101 | 73 | 151 | 2.0 | 5.0 | 0.00 | 0.00 | 0.00 | 92 | 1013.2 |
| 20260509050050 | 73 | 151 | 2.0 | 6.0 | 0.00 | 0.00 | 0.00 | 92 | 1010.8 |
| 20260509044600 | 72 | 131 | 1.0 | 8.0 | 0.00 | 0.00 | 0.00 | 92 | 1013.1 |
| 20260509044546 | 72 | 131 | 2.0 | 8.0 | 0.00 | 0.00 | 0.00 | 92 | 1010.5 |
| 20260509043059 | 72 | 94 | 2.0 | 6.0 | 0.00 | 0.00 | 0.00 | 92 | 1012.8 |
| 20260509043050 | 72 | 90 | 2.0 | 6.0 | 0.00 | 0.00 | 0.00 | 91 | 1010.3 |
| 20260509041556 | 72 | 119 | 1.0 | 4.0 | 0.00 | 0.00 | 0.00 | 92 | 1012.9 |
| 20260509041544 | 72 | 119 | 1.0 | 6.0 | 0.00 | 0.00 | 0.00 | 91 | 1010.2 |
| 20260509040124 | 72 | 98 | 0.0 | 4.0 | 0.00 | 0.00 | 0.00 | 91 | 1012.8 |
| 20260509034600 | 72 | 104 | 0.0 | 4.0 | 0.00 | 0.00 | 0.00 | 90 | 1012.4 |
| 20260509034548 | 72 | 0 | 0.0 | 6.0 | 0.00 | 0.00 | 0.00 | 90 | 1009.6 |
| 20260509033055 | 73 | 107 | 1.0 | 4.0 | 0.00 | 0.00 | 0.00 | 90 | 1011.9 |
| 20260509033047 | 73 | 107 | 1.0 | 4.0 | 0.00 | 0.00 | 0.00 | 89 | 1009.1 |
| 20260509031558 | 73 | 48 | 2.0 | 5.0 | 0.00 | 0.00 | 0.00 | 90 | 1011.9 |
| 20260509031548 | 73 | 46 | 2.0 | 5.0 | 0.00 | 0.00 | 0.00 | 89 | 1009.3 |
| 20260509030057 | 73 | 107 | 2.0 | 7.0 | 0.00 | 0.00 | 0.00 | 89 | 1011.9 |
| 20260509030049 | 73 | 107 | 1.0 | 9.0 | 0.00 | 0.00 | 0.00 | 88 | 1009.4 |
| 20260509024556 | 74 | 98 | 2.0 | 8.0 | 0.00 | 0.00 | 0.00 | 88 | 1011.8 |
| 20260509024544 | 74 | 86 | 2.0 | 8.0 | 0.00 | 0.00 | 0.00 | 88 | 1009.2 |
| 20260509023053 | 74 | 119 | 2.0 | 8.0 | 0.00 | 0.00 | 0.00 | 88 | 1011.7 |
| 20260509023046 | 74 | 119 | 4.0 | 8.0 | 0.00 | 0.00 | 0.00 | 87 | 1009.0 |
| 20260509021552 | 74 | 70 | 2.0 | 6.0 | 0.00 | 0.00 | 0.00 | 87 | 1011.7 |
| 20260509021548 | 74 | 78 | 2.0 | 6.0 | 0.00 | 0.00 | 0.00 | 87 | 1009.1 |
| 20260509020051 | 74 | 56 | 2.0 | 5.0 | 0.00 | 0.00 | 0.00 | 85 | 1008.6 |
| 20260509014551 | 74 | 48 | 1.0 | 4.0 | 0.00 | 0.00 | 0.00 | 85 | 1011.0 |
| 20260509014544 | 74 | 48 | 1.0 | 5.0 | 0.00 | 0.00 | 0.00 | 84 | 1008.3 |
| 20260509013053 | 75 | 57 | 1.0 | 4.0 | 0.00 | 0.00 | 0.00 | 84 | 1010.8 |
| 20260509013051 | 75 | 57 | 1.0 | 4.0 | 0.00 | 0.00 | 0.00 | 83 | 1007.9 |
| 20260509011558 | 75 | 45 | 2.0 | 5.0 | 0.00 | 0.00 | 0.00 | 83 | 1010.9 |
| 20260509011556 | 75 | 45 | 2.0 | 6.0 | 0.00 | 0.00 | 0.00 | 82 | 1008.2 |
| 20260509010050 | 76 | 73 | 2.0 | 6.0 | 0.00 | 0.00 | 0.00 | 82 | 1010.7 |
| 20260509004605 | 76 | 78 | 2.0 | 7.0 | 0.00 | 0.00 | 0.00 | 81 | 1010.6 |
| 20260509003049 | 77 | 90 | 2.0 | 8.0 | 0.00 | 0.00 | 0.00 | 80 | 1010.6 |
| 20260509003044 | 77 | 49 | 3.0 | 9.0 | 0.00 | 0.00 | 0.00 | 80 | 1007.9 |
| 20260509001547 | 77 | 105 | 4.0 | 8.0 | 0.00 | 0.00 | 0.00 | 79 | 1010.7 |
| 20260509001542 | 77 | 85 | 4.0 | 8.0 | 0.00 | 0.00 | 0.00 | 79 | 1007.8 |
| 20260509000047 | 77 | 32 | 2.0 | 4.0 | 0.00 | 0.00 | 0.00 | 79 | 1010.8 |
| 20260509000042 | 77 | 32 | 2.0 | 4.0 | 0.00 | 0.00 | 0.00 | 79 | 1008.0 |
| 20260508234548 | 77 | 44 | 3.0 | 8.0 | 0.00 | 0.00 | 0.00 | 79 | 1008.0 |
| 20260508234546 | 77 | 48 | 4.0 | 7.0 | 0.00 | 0.00 | 0.00 | 79 | 1010.8 |
| 20260508233045 | 77 | 118 | 4.0 | 7.0 | 0.00 | 0.00 | 0.00 | 79 | 1010.8 |
| 20260508233042 | 77 | 117 | 3.0 | 7.0 | 0.00 | 0.00 | 0.00 | 78 | 1008.0 |
| 20260508231546 | 77 | 18 | 2.0 | 7.0 | 0.00 | 0.00 | 0.00 | 79 | 1008.2 |
| 20260508231544 | 77 | 17 | 2.0 | 7.0 | 0.00 | 0.00 | 0.00 | 79 | 1010.8 |
| 20260508230044 | 77 | 51 | 2.0 | 7.0 | 0.00 | 0.00 | 0.00 | 78 | 1008.2 |
| 20260508224544 | 77 | 53 | 4.0 | 9.0 | 0.00 | 0.00 | 0.00 | 78 | 1008.0 |
| 20260508224541 | 77 | 53 | 4.0 | 9.0 | 0.00 | 0.00 | 0.00 | 79 | 1011.0 |
| 20260508223051 | 77 | 90 | 2.0 | 7.0 | 0.00 | 0.00 | 0.00 | 78 | 1008.4 |
| 20260508223048 | 77 | 94 | 2.0 | 7.0 | 0.00 | 0.00 | 0.00 | 79 | 1011.1 |
| 20260508221543 | 77 | 49 | 2.0 | 7.0 | 0.00 | 0.00 | 0.00 | 79 | 1008.5 |
| 20260508221541 | 77 | 76 | 2.0 | 7.0 | 0.00 | 0.00 | 0.00 | 79 | 1011.2 |
| 20260508220046 | 76 | 160 | 2.0 | 8.0 | 0.00 | 0.00 | 0.00 | 79 | 1008.6 |
| 20260508220036 | 76 | 159 | 3.0 | 7.0 | 0.00 | 0.00 | 0.00 | 79 | 1011.4 |
| 20260508214554 | 76 | 130 | 3.0 | 8.0 | 0.00 | 0.00 | 0.00 | 80 | 1008.7 |
| 20260508214538 | 76 | 109 | 4.0 | 8.0 | 0.00 | 0.00 | 0.00 | 80 | 1011.6 |
| 20260508213044 | 76 | 83 | 3.0 | 10.0 | 0.00 | 0.00 | 0.00 | 79 | 1008.8 |
| 20260508213036 | 76 | 83 | 2.0 | 10.0 | 0.00 | 0.00 | 0.00 | 79 | 1011.7 |
| 20260508211551 | 76 | 153 | 3.0 | 8.0 | 0.00 | 0.00 | 0.00 | 79 | 1008.9 |
| 20260508211534 | 76 | 153 | 2.0 | 8.0 | 0.00 | 0.00 | 0.00 | 79 | 1011.8 |
| 20260508210049 | 76 | 122 | 5.0 | 10.0 | 0.00 | 0.00 | 0.00 | 79 | 1009.3 |
| 20260508210031 | 76 | 122 | 5.0 | 10.0 | 0.00 | 0.00 | 0.00 | 79 | 1012.1 |
| 20260508204545 | 76 | 157 | 3.0 | 10.0 | 0.00 | 0.00 | 0.00 | 79 | 1009.7 |
| 20260508204533 | 76 | 157 | 3.0 | 9.0 | 0.00 | 0.00 | 0.00 | 80 | 1012.4 |
| 20260508203051 | 77 | 156 | 5.0 | 10.0 | 0.00 | 0.00 | 0.00 | 78 | 1009.8 |
| 20260508203029 | 77 | 156 | 3.0 | 10.0 | 0.00 | 0.00 | 0.00 | 79 | 1012.6 |
| 20260508201544 | 77 | 146 | 3.0 | 8.0 | 0.00 | 0.00 | 0.00 | 78 | 1009.7 |
| 20260508201530 | 77 | 146 | 3.0 | 8.0 | 0.00 | 0.00 | 0.00 | 79 | 1012.5 |
| 20260508200045 | 77 | 78 | 3.0 | 9.0 | 0.00 | 0.00 | 0.00 | 78 | 1009.7 |
| 20260508200026 | 77 | 77 | 4.0 | 9.0 | 0.00 | 0.00 | 0.00 | 78 | 1012.6 |
| 20260508194545 | 76 | 98 | 4.0 | 9.0 | 0.00 | 0.00 | 0.00 | 79 | 1009.8 |
| 20260508194521 | 76 | 88 | 4.0 | 9.0 | 0.00 | 0.00 | 0.00 | 79 | 1012.7 |
| 20260508193055 | 76 | 72 | 3.0 | 9.0 | 0.00 | 0.00 | 0.00 | 79 | 1009.9 |
| 20260508193018 | 76 | 73 | 3.0 | 9.0 | 0.00 | 0.00 | 0.00 | 79 | 1012.9 |
| 20260508191544 | 76 | 119 | 3.0 | 9.0 | 0.00 | 0.00 | 0.00 | 79 | 1010.0 |
| 20260508191514 | 76 | 119 | 4.0 | 9.0 | 0.00 | 0.00 | 0.00 | 80 | 1012.9 |
| 20260508190043 | 76 | 70 | 4.0 | 9.0 | 0.00 | 0.00 | 0.00 | 80 | 1010.1 |
| 20260508190008 | 76 | 77 | 5.0 | 9.0 | 0.00 | 0.00 | 0.00 | 80 | 1013.0 |
| 20260508184550 | 75 | 109 | 5.0 | 10.0 | 0.00 | 0.00 | 0.00 | 80 | 1010.3 |
| 20260508184506 | 75 | 127 | 5.0 | 10.0 | 0.00 | 0.00 | 0.00 | 80 | 1013.4 |
| 20260508183047 | 74 | 99 | 5.0 | 11.0 | 0.00 | 0.00 | 0.00 | 79 | 1010.4 |
| 20260508183003 | 74 | 109 | 5.0 | 11.0 | 0.00 | 0.00 | 0.00 | 79 | 1013.5 |
| 20260508181605 | 73 | 138 | 3.0 | 9.0 | 0.00 | 0.00 | 0.00 | 81 | 1013.8 |
| 20260508181555 | 73 | 155 | 3.0 | 10.0 | 0.00 | 0.00 | 0.00 | 81 | 1010.6 |
| 20260508180055 | 72 | 54 | 3.0 | 10.0 | 0.00 | 0.00 | 0.00 | 82 | 1014.0 |
| 20260508180049 | 72 | 116 | 5.0 | 10.0 | 0.00 | 0.00 | 0.00 | 81 | 1010.8 |
| 20260508174555 | 70 | 149 | 3.0 | 7.0 | 0.00 | 0.00 | 0.00 | 84 | 1014.5 |
| 20260508174541 | 70 | 145 | 2.0 | 7.0 | 0.00 | 0.00 | 0.00 | 84 | 1011.2 |
| 20260508173048 | 69 | 144 | 0.0 | 6.0 | 0.00 | 0.00 | 0.00 | 84 | 1014.6 |
| 20260508171546 | 69 | 156 | 2.0 | 5.0 | 0.00 | 0.00 | 0.00 | 85 | 1011.6 |
| 20260508170050 | 68 | 0 | 0.0 | 3.0 | 0.00 | 0.00 | 0.00 | 85 | 1011.9 |
| 20260508170044 | 68 | 48 | 0.0 | 1.0 | 0.00 | 0.00 | 0.00 | 86 | 1014.8 |
| 20260508164548 | 68 | 49 | 1.0 | 4.0 | 0.00 | 0.00 | 0.00 | 85 | 1012.1 |
| 20260508164541 | 68 | 49 | 1.0 | 4.0 | 0.00 | 0.00 | 0.00 | 86 | 1014.9 |
| 20260508163048 | 68 | 11 | 1.0 | 4.0 | 0.00 | 0.00 | 0.00 | 85 | 1011.9 |
| 20260508163046 | 68 | 11 | 2.0 | 4.0 | 0.00 | 0.00 | 0.00 | 85 | 1014.9 |
| 20260508161545 | 67 | 46 | 2.0 | 7.0 | 0.00 | 0.00 | 0.00 | 86 | 1012.2 |
| 20260508161538 | 67 | 46 | 2.0 | 7.0 | 0.00 | 0.00 | 0.00 | 86 | 1015.1 |
| 20260508160121 | 66 | 47 | 2.0 | 5.0 | 0.00 | 0.00 | 0.00 | 86 | 1012.3 |
| 20260508160054 | 66 | 47 | 2.0 | 5.0 | 0.00 | 0.00 | 0.00 | 87 | 1015.1 |
| 20260508154544 | 66 | 69 | 1.0 | 5.0 | 0.00 | 0.00 | 0.00 | 87 | 1012.5 |
| 20260508154529 | 66 | 55 | 1.0 | 5.0 | 0.00 | 0.00 | 0.00 | 88 | 1015.4 |
| 20260508153051 | 65 | 59 | 2.0 | 5.0 | 0.00 | 0.00 | 0.00 | 87 | 1012.7 |
| 20260508153030 | 65 | 60 | 2.0 | 5.0 | 0.00 | 0.00 | 0.00 | 88 | 1015.8 |
| 20260508151553 | 65 | 352 | 0.0 | 6.0 | 0.00 | 0.00 | 0.00 | 88 | 1013.0 |
| 20260508151528 | 65 | 355 | 0.0 | 5.0 | 0.00 | 0.00 | 0.00 | 88 | 1016.2 |
| 20260508150049 | 65 | 352 | 2.0 | 6.0 | 0.00 | 0.00 | 0.00 | 88 | 1013.1 |
| 20260508150033 | 65 | 355 | 1.0 | 6.0 | 0.00 | 0.00 | 0.00 | 88 | 1016.2 |
| 20260508144547 | 65 | 0 | 1.0 | 8.0 | 0.00 | 0.00 | 0.00 | 89 | 1013.0 |
| 20260508144526 | 65 | 61 | 1.0 | 8.0 | 0.00 | 0.00 | 0.00 | 89 | 1016.2 |
| 20260508143056 | 64 | 13 | 2.0 | 6.0 | 0.00 | 0.00 | 0.00 | 89 | 1012.8 |
| 20260508143031 | 64 | 13 | 3.0 | 6.0 | 0.00 | 0.00 | 0.00 | 90 | 1016.1 |
| 20260508141553 | 63 | 352 | 1.0 | 6.0 | 0.00 | 0.00 | 0.00 | 89 | 1013.2 |
| 20260508141531 | 63 | 355 | 0.0 | 6.0 | 0.00 | 0.00 | 0.00 | 89 | 1016.4 |
| 20260508140048 | 63 | 40 | 2.0 | 5.0 | 0.00 | 0.00 | 0.00 | 88 | 1013.1 |
| 20260508140023 | 63 | 40 | 1.0 | 5.0 | 0.00 | 0.00 | 0.00 | 89 | 1016.3 |
| 20260508134543 | 63 | 78 | 2.0 | 5.0 | 0.00 | 0.00 | 0.00 | 88 | 1012.9 |
| 20260508134530 | 63 | 78 | 2.0 | 5.0 | 0.00 | 0.00 | 0.00 | 88 | 1016.2 |
| 20260508133055 | 63 | 0 | 0.0 | 5.0 | 0.00 | 0.00 | 0.00 | 87 | 1012.8 |
| 20260508133023 | 63 | 76 | 0.0 | 4.0 | 0.00 | 0.00 | 0.00 | 87 | 1016.0 |
| 20260508131545 | 62 | 51 | 3.0 | 7.0 | 0.00 | 0.00 | 0.00 | 86 | 1012.6 |
| 20260508131522 | 63 | 51 | 2.0 | 6.0 | 0.00 | 0.00 | 0.00 | 87 | 1015.6 |
| 20260508130053 | 62 | 76 | 2.0 | 7.0 | 0.00 | 0.00 | 0.00 | 86 | 1012.7 |
| 20260508130022 | 62 | 77 | 2.0 | 7.0 | 0.00 | 0.00 | 0.00 | 86 | 1015.8 |
| 20260508124548 | 62 | 355 | 2.0 | 6.0 | 0.00 | 0.00 | 0.00 | 87 | 1012.9 |
| 20260508124511 | 62 | 355 | 2.0 | 6.0 | 0.00 | 0.00 | 0.00 | 87 | 1016.1 |
| 20260508123046 | 62 | 64 | 1.0 | 5.0 | 0.00 | 0.00 | 0.00 | 86 | 1012.7 |
| 20260508123012 | 62 | 58 | 1.0 | 5.0 | 0.00 | 0.00 | 0.00 | 87 | 1016.0 |
| 20260508121601 | 63 | 22 | 1.0 | 6.0 | 0.00 | 0.00 | 0.00 | 86 | 1012.9 |
| 20260508121521 | 63 | 22 | 1.0 | 6.0 | 0.00 | 0.00 | 0.00 | 86 | 1016.1 |
| 20260508120046 | 63 | 46 | 2.0 | 7.0 | 0.00 | 0.00 | 0.00 | 85 | 1013.1 |
| 20260508120007 | 63 | 53 | 2.0 | 6.0 | 0.00 | 0.00 | 0.00 | 86 | 1016.4 |
| 20260508114551 | 63 | 343 | 1.0 | 6.0 | 0.00 | 0.00 | 0.00 | 86 | 1013.5 |
| 20260508114507 | 63 | 360 | 1.0 | 6.0 | 0.00 | 0.00 | 0.00 | 86 | 1016.7 |
| 20260508113043 | 63 | 32 | 0.0 | 6.0 | 0.00 | 0.00 | 0.00 | 86 | 1013.2 |
| 20260508113006 | 62 | 32 | 0.0 | 6.0 | 0.00 | 0.00 | 0.00 | 86 | 1016.4 |
| 20260508111542 | 62 | 17 | 3.0 | 10.0 | 0.00 | 0.00 | 0.00 | 87 | 1013.0 |
| 20260508111505 | 63 | 17 | 3.0 | 6.0 | 0.00 | 0.00 | 0.00 | 88 | 1016.2 |
| 20260508110053 | 63 | 360 | 3.0 | 12.0 | 0.00 | 0.00 | 0.00 | 88 | 1012.4 |
| 20260508110005 | 63 | 5 | 3.0 | 12.0 | 0.00 | 0.00 | 0.00 | 88 | 1015.5 |
| 20260508104544 | 63 | 42 | 1.0 | 5.0 | 0.00 | 0.00 | 0.00 | 89 | 1012.8 |
| 20260508104505 | 63 | 43 | 1.0 | 5.0 | 0.00 | 0.00 | 0.00 | 90 | 1016.0 |
| 20260508103054 | 63 | 0 | 0.0 | 3.0 | 0.00 | 0.00 | 0.00 | 89 | 1013.8 |
| 20260508103013 | 63 | 306 | 0.0 | 3.0 | 0.00 | 0.00 | 0.00 | 90 | 1016.9 |
| 20260508101542 | 63 | 0 | 0.0 | 2.0 | 0.00 | 0.00 | 0.00 | 89 | 1013.1 |
| 20260508101503 | 63 | 306 | 0.0 | 1.0 | 0.00 | 0.00 | 0.00 | 89 | 1016.4 |
| 20260508100042 | 63 | 306 | 0.0 | 3.0 | 0.00 | 0.00 | 0.00 | 88 | 1012.8 |
| 20260508100002 | 63 | 306 | 0.0 | 3.0 | 0.00 | 0.00 | 0.00 | 88 | 1015.9 |
| 20260508094603 | 63 | 0 | 0.0 | 3.0 | 0.00 | 0.00 | 0.00 | 87 | 1013.1 |
| 20260508094501 | 63 | 292 | 0.0 | 2.0 | 0.00 | 0.00 | 0.00 | 87 | 1016.2 |
| 20260508093100 | 63 | 109 | 0.0 | 2.0 | 0.00 | 0.00 | 0.00 | 85 | 1015.7 |
| 20260508093041 | 63 | 109 | 0.0 | 8.0 | 0.00 | 0.00 | 0.00 | 84 | 1012.5 |
| 20260508091604 | 64 | 142 | 4.0 | 7.0 | 0.00 | 0.00 | 0.00 | 83 | 1015.6 |
| 20260508091543 | 64 | 107 | 3.0 | 7.0 | 0.00 | 0.00 | 0.00 | 82 | 1012.4 |
| 20260508090055 | 64 | 350 | 2.0 | 5.0 | 0.00 | 0.00 | 0.00 | 82 | 1016.3 |
| 20260508090045 | 64 | 350 | 1.0 | 5.0 | 0.00 | 0.00 | 0.00 | 81 | 1013.1 |
| 20260508084554 | 64 | 5 | 3.0 | 6.0 | 0.00 | 0.00 | 0.00 | 82 | 1016.3 |
| 20260508084547 | 64 | 5 | 3.0 | 7.0 | 0.00 | 0.00 | 0.00 | 82 | 1013.1 |
| 20260508083132 | 64 | 53 | 2.0 | 4.0 | 0.00 | 0.00 | 0.00 | 82 | 1016.4 |
| 20260508083117 | 64 | 53 | 1.0 | 4.0 | 0.00 | 0.00 | 0.00 | 82 | 1013.2 |
| 20260508081556 | 64 | 80 | 2.0 | 5.0 | 0.00 | 0.00 | 0.00 | 81 | 1016.3 |
| 20260508081554 | 64 | 80 | 3.0 | 5.0 | 0.00 | 0.00 | 0.00 | 81 | 1013.2 |
| 20260508080056 | 64 | 78 | 3.0 | 7.0 | 0.00 | 0.00 | 0.00 | 80 | 1016.1 |
| 20260508080052 | 64 | 78 | 2.0 | 7.0 | 0.00 | 0.00 | 0.00 | 79 | 1012.9 |
| 20260508074549 | 65 | 130 | 1.0 | 3.0 | 0.00 | 0.00 | 0.00 | 76 | 1016.7 |
| 20260508074539 | 65 | 130 | 1.0 | 3.0 | 0.00 | 0.00 | 0.00 | 76 | 1013.6 |
| 20260508073055 | 65 | 48 | 0.0 | 3.0 | 0.00 | 0.00 | 0.00 | 75 | 1017.0 |
| 20260508073052 | 65 | 48 | 0.0 | 4.0 | 0.00 | 0.00 | 0.00 | 74 | 1014.0 |
| 20260508071549 | 65 | 45 | 2.0 | 5.0 | 0.00 | 0.00 | 0.00 | 74 | 1017.2 |
| 20260508071546 | 65 | 47 | 2.0 | 5.0 | 0.00 | 0.00 | 0.00 | 74 | 1014.1 |
| 20260508070046 | 65 | 37 | 1.0 | 3.0 | 0.00 | 0.00 | 0.00 | 74 | 1017.0 |
| 20260508064603 | 65 | 36 | 2.0 | 6.0 | 0.00 | 0.00 | 0.00 | 73 | 1017.2 |
| 20260508063046 | 65 | 30 | 1.0 | 4.0 | 0.00 | 0.00 | 0.00 | 73 | 1017.4 |
| 20260508063040 | 65 | 30 | 1.0 | 4.0 | 0.00 | 0.00 | 0.00 | 72 | 1014.2 |
| 20260508061545 | 65 | 360 | 2.0 | 9.0 | 0.00 | 0.00 | 0.00 | 73 | 1017.1 |
| 20260508060045 | 65 | 46 | 4.0 | 10.0 | 0.00 | 0.00 | 0.00 | 73 | 1016.7 |
| 20260508054543 | 65 | 60 | 5.0 | 9.0 | 0.00 | 0.00 | 0.00 | 72 | 1013.5 |
| 20260508054541 | 65 | 53 | 5.0 | 9.0 | 0.00 | 0.00 | 0.00 | 73 | 1016.5 |
| 20260508053042 | 65 | 88 | 2.0 | 6.0 | 0.00 | 0.00 | 0.00 | 73 | 1014.2 |
| 20260508053037 | 65 | 88 | 2.0 | 6.0 | 0.00 | 0.00 | 0.00 | 73 | 1017.4 |